Location: Hickory_CSC
(35.7330°N, 81.3330°W)
Time: 06:53:31
(UTC-04:00)

ISS - All Passes

Search period start: 25 July 2017 00:00
Search period end: 04 August 2017 00:00
Orbit: 400 x 408 km, 51.6° (Epoch: 25 July)

Date Brightness Start Highest point End Pass type
(mag) Time Alt. Az. Time Alt. Az. Time Alt. Az.
25 Jul - 03:34:06 10° NNW 03:36:32 19° NNE 03:38:58 10° E visible
25 Jul - 05:10:02 10° WNW 05:13:08 42° SW 05:16:14 10° SSE visible
25 Jul - 20:11:56 10° S 20:14:30 22° SE 20:17:05 10° ENE daylight
25 Jul - 21:47:56 10° W 21:50:51 30° NW 21:53:46 10° NNE visible
26 Jul - 02:42:28 10° N 02:43:57 12° NNE 02:45:27 10° NE visible
26 Jul - 04:17:36 10° NW 04:20:52 85° NE 04:24:07 10° SE visible
26 Jul - 19:21:42 10° SE 19:22:22 10° SE 19:23:02 10° ESE daylight
26 Jul - 20:55:14 10° WSW 20:58:26 59° NW 21:01:39 10° NE visible
26 Jul - 22:34:54 10° NNW 22:35:28 10° NNW 22:36:04 10° NNW visible
27 Jul - 03:25:23 10° NW 03:28:29 40° NE 03:31:35 10° ESE night (unlit)
27 Jul - 05:02:40 10° W 05:04:42 16° SW 05:06:43 10° SSW night (unlit)
27 Jul - 20:02:54 10° SW 20:06:06 62° SE 20:09:19 10° NE daylight
27 Jul - 21:40:48 10° WNW 21:42:50 15° NNW 21:44:53 10° N visible
28 Jul - 02:33:21 10° NNW 02:36:01 23° NNE 02:38:40 10° E night (unlit)
28 Jul - 04:09:33 10° WNW 04:12:30 32° SW 04:15:27 10° SSE night (unlit)
28 Jul - 19:11:00 10° SSW 19:13:50 28° SE 19:16:40 10° ENE daylight
28 Jul - 20:47:32 10° W 20:50:17 25° NNW 20:53:02 10° NNE daylight
29 Jul - 01:41:33 10° N 01:43:26 14° NNE 01:45:18 10° ENE visible
29 Jul - 03:16:58 10° NW 03:20:13 73° SW 03:23:27 10° SE night (unlit)
29 Jul - 18:19:56 10° SSE 18:21:38 14° SE 18:23:21 10° E daylight
29 Jul - 19:54:39 10° WSW 19:57:48 45° NW 20:00:57 10° NE daylight
30 Jul - 02:24:39 10° NW 02:27:50 51° NE 02:31:01 10° ESE night (unlit)
30 Jul - 04:02:36 10° WSW 04:03:57 12° SW 04:05:17 10° SSW night (unlit)
30 Jul - 19:02:09 10° SW 19:05:23 83° SE 19:08:39 10° NE daylight
30 Jul - 20:40:32 10° WNW 20:42:14 13° NNW 20:43:56 10° N daylight
31 Jul - 01:32:31 10° NNW 01:35:21 27° NE 01:38:11 10° E night (unlit)
31 Jul - 03:09:01 10° WNW 03:11:45 25° SW 03:14:28 10° S night (unlit)
31 Jul - 18:10:03 10° SSW 18:13:03 36° SE 18:16:05 10° ENE daylight
31 Jul - 19:47:03 10° W 19:49:36 21° NNW 19:52:09 10° NNE daylight
01 Aug - 00:40:35 10° NNW 00:42:46 17° NNE 00:44:58 10° ENE visible
01 Aug - 02:16:17 10° WNW 02:19:27 54° SW 02:22:38 10° SSE night (unlit)
01 Aug - 17:18:34 10° S 17:20:48 17° SE 17:23:02 10° E daylight
01 Aug - 18:54:01 10° WSW 18:57:03 36° NW 19:00:06 10° NNE daylight
01 Aug - 23:49:06 10° N 23:50:05 11° NNE 23:51:04 10° NE visible
02 Aug - 01:23:50 10° NW 01:27:04 66° NE 01:30:18 10° SE night (unlit)
02 Aug - 18:01:20 10° SW 18:04:35 76° NW 18:07:50 10° NE daylight
02 Aug - 19:40:14 10° NW 19:41:31 12° NNW 19:42:46 10° N daylight
03 Aug - 00:31:36 10° NNW 00:34:35 32° NE 00:37:33 10° ESE visible
03 Aug - 02:08:27 10° W 02:10:52 19° SW 02:13:18 10° S night (unlit)
03 Aug - 17:09:02 10° SSW 17:12:11 47° SE 17:15:19 10° ENE daylight
03 Aug - 18:46:30 10° WNW 18:48:49 18° NNW 18:51:08 10° NNE daylight
03 Aug - 23:39:32 10° NNW 23:41:59 19° NNE 23:44:25 10° E visible
